Regional Weather Roundup
Issued by NWS Charleston, SC

Current Version | Previous Version | Graphics & Text | Print | Product List | Glossary On
Versions: 1 2 3 4 5 6 7 8 9 10 11 12 13 14 15 16 17 18 19 20 21 22 23 24 25 26 27 28 29 30 31 32 33 34 35 36 37 38 39 40 41 42 43 44 45 46 47 48 49 50
000 ASUS42 KCHS 282028 RWRCHS REGIONAL WEATHER ROUNDUP NATIONAL WEATHER SERVICE CHARLESTON SC 400 PM EDT THU APR 28 2016 NOTE: "FAIR" INDICATES FEW OR NO CLOUDS BELOW 12,000 FEET WITH NO SIGNIFICANT WEATHER AND/OR OBSTRUCTIONS TO VISIBILITY. NOT ALL STATIONS ARE QUALITY CONTROLLED. USE DATA WITH CAUTION... ESPECIALLY DEWPOINT OBSERVATIONS. SCZ027-030-031-034>040-042>050-282100- ...SOUTHEAST SOUTH CAROLINA... CITY SKY/WX TMP DP RH WIND PRES REMARKS N CHARLESTON TSTM 80 68 66 S16 29.90F WATERFRONT PRK N/A 78 70 76 S12 29.90F MOUNT PLEASANT FAIR 79 66 65 S9G17 29.91F JOHNS ISLAND FAIR 79 66 65 S13G21 29.92F PINOPOLIS N/A 86 70 58 SW5 29.83S HX 90 MONCKS CORNER FAIR 82 63 51 SW7 29.89F SUMMERVILLE RAIN 77 73 88 W6 29.91F BEAUFORT MCAS PTSUNNY 84 68 58 S9 29.91F BEAUFORT ARPT FAIR 81 66 61 S8 29.91F HILTON HEAD IS MOSUNNY 82 70 65 S10G16 29.94F WALTERBORO PTCLDY 88 64 45 W10G17 29.90F ALLENDALE FAIR 86 66 51 SW8 29.89F ...SOUTHERN MIDLANDS AND PEE DEE... CITY SKY/WX TMP DP RH WIND PRES REMARKS GEORGETOWN FAIR 81 66 61 S13 29.91F KINGSTREE MOCLDY 84 64 51 SW3 29.88F ORANGEBURG MOSUNNY 86 66 51 SW13 29.89F BARNWELL FAIR 90 68 48 SW10 29.90F HX 93 AIKEN FAIR 84 63 48 W10G18 29.93F MANNING NOT AVBL COLUMBIA MOSUNNY 88 66 48 W13G18 29.87F HX 90 SUMTER MOSUNNY 85 66 52 SW13 29.86F FLORENCE MOSUNNY 85 66 53 SW13 29.88F MYRTLE BEACH MOSUNNY 79 64 61 S15 29.94F N MYRTLE BEACH SUNNY 76 67 73 S13 29.91F $$ GAZ063-065-086>088-099>101-113>116-118-119-134>141-150-282100- ...SOUTHEAST GEORGIA... CITY SKY/WX TMP DP RH WIND PRES REMARKS SAVANNAH ARPT CLOUDY 85 66 53 W14 29.93F HUNTER AAF CLOUDY 81 70 67 S8 29.91F FORT STEWART CLOUDY 84 66 54 SW7 29.91F STATESBORO PTSUNNY 84 74 71 SW8 29.92F HX 92 SYLVANIA MOCLDY 82 72 71 W8 29.92F CLAXTON FAIR 81 72 74 SW8 29.93F ...CSRA...CENTRAL AND FAR SOUTHEAST GEORGIA... CITY SKY/WX TMP DP RH WIND PRES REMARKS THOMSON MOSUNNY 87 69 54 SW8 29.94F HX 90 AUGUSTA-BUSH MOSUNNY 86 66 51 W12 29.89F AUGUSTA-DANIEL PTSUNNY 86 64 47 SW10 29.91F SWAINSBORO TSTM 77 72 83 W12G17 29.96R VIDALIA TSTM 77 72 83 SW3 29.95F EASTMAN FAIR 76 76 100 W3 29.97F HAZLEHURST FAIR 80 72 75 CALM 29.94F ALMA PTSUNNY 78 70 76 E5 29.95F WAYCROSS CLOUDY 82 71 69 SW7 29.94S THUNDER JESUP CLOUDY 81 72 74 NW13G23 29.93F BAXLEY FAIR 77 72 83 S5 29.95F BRUNSWICK CLOUDY 90 68 48 W7 29.94S HX 93 SAINT SIMONS CLOUDY 79 68 69 S9 29.93F $$ SCZ027-028-034-036>038-045-046-048>050-GAZ119-141-282100- ...LAKE AND SUPPLEMENTAL COASTAL OBSERVATIONS... STATION/POSITION TIME TEMP WIND PRES WAVE SWELL AIR SEA DIR/SP/G HT/PER HT/PER/DIR (UTC) (F) (DEG/KT/KT) (MB) (FT/S) (FT/S/D) WINYAH BAY 1945 78 190/ 11 1013.0S LAKE MURRAY 1900 80 270/ 5/ 8 1012.2F ACE BASIN NERRS 1900 81 150/ 2 1014.0S FORT PULASKI 2000 77 71 190/ 7/ 12 1013.8F SAPELO ISLAND 2000 79 160/ 7 1014.0S $$ ANZ835-935-AMZ111-154-330-350-352-354-370-450-454-472-282100- ...C-MAN AND BUOY OBSERVATIONS... STATION/POSITION TIME TEMP WIND PRES WAVE SWELL AIR SEA DIR/SP/G HT/PER HT/PER/DIR (UTC) (F) (DEG/KT/KT) (MB) (FT/S) (FT/S/D) BUOY 41004 1950 72 71 190/ 8/ 8 1014.0F 3/ 5 2/ 5 BUOY 41008 NOT AVBL FOLLY BEACH CMAN 2000 73 200/ 11/ 13 1013.6F CAPERS NEARSHORE 2008 72 72 210/ 12/ 16 1012.9F FRIPP NEARSHORE 2008 73 72 190/ 14/ 17 1012.3F STATION/POSITION TIME TEMP WIND PRES WAVE SWELL AIR SEA DIR/SP/G HT/PER HT/PER/DIR (UTC) (F) (DEG/KT/KT) (MB) (FT/S) (FT/S/D) 5E ST. MARYS GA 1921 73 N/A 2/ 5 FRYING PAN BUOY 2000 72 70 200/ 10/ 12 1013.5F BUOY 41025 1950 74 72 210/ 19/ 21 1012.3F 3/ 6 2/140/11 CAPE LOOKOUT NC 2000 72 200/ 12/ 16 1012.2F BUOY 41002 1950 72 72 180/ 10/ 12 1016.5F 2/ 8 2/100/ 8 BUOY 41010 1920 76 77 200/ 8/ 10 1016.1F ST AUGUSTINE FL 2000 74 71 120/ 8/ 9 1015.0F $$

USA.gov is the U.S. government's official web portal to all federal, state and local government web resources and services.